Zurück zum Katalog

COSMOS 1275 DEB

AktivPO
NORAD 42119·DEBRIS·🇷🇺 Russia

Gestartet Jun 4, 1981 von Plesetsk Cosmodrome

Loading…

Nächste Überflüge (nächste 24 Stunden)

TLE

AktuellSource: Space-Track

Epoche: Sep 12, 2026, 12:28 UTC

1 42119U 81053QF  26255.51996729  .00000268  00000-0  20888-3 0  9997
2 42119  83.1761 177.3445 0038956 223.2504 136.5600 13.88386782119371

Verfolge COSMOS 1275 DEB in Echtzeit mit AllMySat

Download on the App Store